Miscellaneous Local Product
Issued by NWS Hastings, NE

Home | Current Version | Previous Version | Text Only | Print | Product List | Glossary On
Versions: 1 2 3 4 5 6 7 8 9 10 11 12 13 14 15 16 17 18 19 20 21 22 23 24 25 26 27 28 29 30 31 32 33 34 35 36 37 38 39 40 41 42 43 44 45 46 47 48 49 50
969
AXUS43 KGID 310202
MISGRI

GID CWA HOURLY WEATHER ROUNDUP
NATIONAL WEATHER SERVICE HASTINGS NE
900 PM CDT MON MAY 30 2016

NOTE: "FAIR" INDICATES FEW OR NO CLOUDS BELOW 12,000 FEET WITH NO
SIGNIFICANT WEATHER AND/OR OBSTRUCTIONS TO VISIBILITY.

...SOUTH CENTRAL NEBRASKA...

CITY           SKY/WX    TMP DP  RH WIND       PRES   REMARKS
GRAND ISLAND   CLOUDY    74  58  57 S10       29.84R
HASTINGS       CLOUDY    74  58  57 S8        29.84S
KEARNEY        CLOUDY    75  55  50 S12       29.84S
ORD            CLOUDY    75  57  53 S9        29.80R
YORK           CLEAR     73  59  60 S9        29.85S
AURORA         CLEAR     76  58  53 S9        29.83S
LEXINGTON      CLOUDY    68  52  55 W28G38    29.90R
HOLDREGE       CLOUDY    74  56  53 S10       29.84R
HEBRON         MOCLDY    76  60  57 S8        29.86S

...NEBRASKA PANHANDLE...

CITY           SKY/WX    TMP DP  RH WIND       PRES   REMARKS
CHADRON        MOCLDY    66  48  52 NW16G25   29.97R
ALLIANCE       CLOUDY    62  49  62 W8        29.91S
SCOTTSBLUFF    CLOUDY    65  46  50 NW7       29.93S
SIDNEY         CLOUDY    58  51  78 SW9       29.94S

...WESTERN AND NORTH CENTRAL NEBRASKA...

CITY           SKY/WX    TMP DP  RH WIND       PRES   REMARKS
VALENTINE      LGT RAIN  62  56  80 N8        29.88R
AINSWORTH      CLOUDY    56  52  86 S6        29.84F THUNDER
ONEILL         CLOUDY    74  57  56 S5        29.80R
BROKEN BOW     CLOUDY    70  52  52 W22G30    29.88R THUNDER
IMPERIAL       CLOUDY    61  52  72 NE9       29.87F
NORTH PLATTE   LGT RAIN  63  54  72 S9G25     29.91R
MCCOOK         TSTM      60  54  80 N23G29    29.93S

...EASTERN NEBRASKA...

CITY           SKY/WX    TMP DP  RH WIND       PRES   REMARKS
NORFOLK        CLEAR     76  55  48 S12       29.80S
SO SIOUX CITY  PTCLDY    73  61  65 SE16      29.83S
TEKAMAH        CLOUDY    71  60  68 S25       29.86R
COLUMBUS       CLEAR     77  55  47 S12       29.84S
ALBION         CLEAR     75  58  55 S10       29.82R
OMAHA EPPLEY   CLOUDY    68  62  81 SE15      29.89S
MILLARD        PTCLDY    71  63  75 E10G16    29.89S
LINCOLN        PTCLDY    77  60  55 SE10      29.86S
NEBRASKA CITY  PTCLDY    69  61  76 SE9       29.90S
BEATRICE       CLOUDY    78  61  55 S13G20    29.88R
FALLS CITY     LGT RAIN  75  62  64 S14       29.91S

...NORTHERN KANSAS...

CITY           SKY/WX    TMP DP  RH WIND       PRES   REMARKS
GOODLAND       CLOUDY    62  53  72 VRB6      30.01R
HILL CITY      CLOUDY    74  58  57 S8        29.86R
NORTON         PTCLDY    73  52  46 NW26      29.92R
PHILLIPSBURG   CLEAR     73  59  60 SE8       29.85R
SMITH CENTER   CLEAR     66  61  82 SE9       29.85F
BELOIT         CLEAR     72  61  68 SE9       29.84F
HAYS           CLOUDY    72  57  60 S12       29.85F
RUSSELL        CLEAR     71  63  75 SE10      29.84F
CONCORDIA      CLEAR     73  61  65 S13       29.87S
SALINA         CLEAR     75  62  64 SE15      29.88S
TOPEKA         CLEAR     73  58  59 SE8       29.94R



USA.gov is the U.S. government's official web portal to all federal, state and local government web resources and services.